This is the latest recevied weather packets stored in our database for station/object AD8BW. If no packets are shown the sender has not sent any weather packets the latest 10 day(s).
| Time | Temp. | Humidity | Pressure | Rain* | Wind** | Luminosity | Snow |
|---|---|---|---|---|---|---|---|
| 1777600124 | 6.67° C | 78% | 1013.2 hPa | 0 mm | - | 0 W/m² | - |
| 1777599521 | 6.67° C | 77% | 1012.9 hPa | 0 mm | - | 0 W/m² | - |
| 1777598923 | 7.22° C | 73% | 1013 hPa | 0 mm | - | 0 W/m² | - |
| 1777598322 | 7.22° C | 65% | 1012.9 hPa | 0 mm | - | 0 W/m² | - |
| 1777597718 | 7.22° C | 59% | 1012.8 hPa | 0 mm | - | 0 W/m² | - |
| 1777597121 | 7.78° C | 58% | 1012.7 hPa | 0 mm | - | 0 W/m² | - |
| 1777596521 | 8.33° C | 57% | 1012.7 hPa | 0 mm | - | 0 W/m² | - |
| 1777595919 | 8.33° C | 54% | 1012.6 hPa | 0 mm | - | 0 W/m² | - |
| 1777595320 | 8.89° C | 54% | 1012.7 hPa | 0 mm | - | 0 W/m² | - |
| 1777594722 | 8.89° C | 52% | 1012.7 hPa | 0 mm | - | 5 W/m² | - |
| 1777594121 | 8.89° C | 52% | 1012.6 hPa | 0 mm | - | 7 W/m² | - |
| 1777593520 | 8.89° C | 52% | 1012.5 hPa | 0 mm | - | 12 W/m² | - |
| 1777592924 | 9.44° C | 51% | 1012.5 hPa | 0 mm | - | 19 W/m² | - |
| 1777592318 | 9.44° C | 50% | 1012.5 hPa | 0 mm | - | 19 W/m² | - |
| 1777591718 | 9.44° C | 49% | 1012.6 hPa | 0 mm | - | 30 W/m² | - |
| 1777591117 | 9.44° C | 49% | 1012.5 hPa | 0 mm | - | 37 W/m² | - |
| 1777590519 | 9.44° C | 49% | 1012.7 hPa | 0 mm | - | 49 W/m² | - |
| 1777589920 | 9.44° C | 50% | 1012.7 hPa | 0 mm | - | 49 W/m² | - |
| 1777589319 | 9.44° C | 50% | 1012.7 hPa | 0 mm | - | 58 W/m² | - |
| 1777588716 | 10° C | 48% | 1012.8 hPa | 0 mm | - | 91 W/m² | - |
| 1777588118 | 9.44° C | 48% | 1012.8 hPa | 0 mm | - | 67 W/m² | - |
| 1777587514 | 9.44° C | 49% | 1012.8 hPa | 0 mm | - | 58 W/m² | - |
| 1777586912 | 9.44° C | 49% | 1012.8 hPa | 0 mm | - | 69 W/m² | - |
| 1777586315 | 10° C | 49% | 1012.7 hPa | 0 mm | - | 77 W/m² | - |
| 1777585714 | 10° C | 47% | 1012.7 hPa | 0 mm | - | 98 W/m² | - |
* Rain latest hour (hover to see other rain measurements)
** Current wind speed in m/s (hover to see current wind gust speed)